EAG5518 SBCA-SBSR

Flight info

Callsign EAG5518
Flight time 0h 55m
Altitude 37000
Route ESKUM UM532 UMPED
Aircraft A320/M-SDE3FGHIRWY/LB1

Departure

Time 2026-05-04 15:45
Airport Coronel Adalberto Mendes da Silva Airport (SBCA)

Arrival

Time 2026-05-04 16:40
Airport Prof. Eribelto Manoel Reino State Airport (SBSR)
Time Latitude Longitude Altitude Speed Heading
2026-05-04 15:32 -25.00143 -53.50338 2489 ft 0 kts 225°
2026-05-04 15:37 -25.00141 -53.50337 2488 ft 2 kts 225°
2026-05-04 15:37 -25.00124 -53.50316 2488 ft 4 kts 233°
2026-05-04 15:38 -25.00111 -53.50291 2488 ft 4 kts 259°
2026-05-04 15:38 -25.00113 -53.50268 2488 ft 2 kts 316°
2026-05-04 15:38 -25.00114 -53.50267 2488 ft 0 kts 317°
2026-05-04 15:41 -25.00075 -53.50263 2489 ft 12 kts 26°
2026-05-04 15:41 -25.00038 -53.50224 2489 ft 6 kts 45°
2026-05-04 15:42 -25.00012 -53.50196 2490 ft 4 kts 49°
2026-05-04 15:42 -25.00020 -53.50134 2489 ft 16 kts 126°
2026-05-04 15:42 -25.00102 -53.50039 2487 ft 19 kts 135°
2026-05-04 15:42 -25.00202 -53.49928 2484 ft 22 kts 135°
2026-05-04 15:43 -25.00317 -53.49802 2483 ft 24 kts 135°
2026-05-04 15:43 -25.00441 -53.49667 2481 ft 24 kts 135°
2026-05-04 15:43 -25.00532 -53.49582 2480 ft 15 kts 159°
2026-05-04 15:43 -25.00578 -53.49537 2480 ft 6 kts 60°
2026-05-04 15:44 -25.00554 -53.49544 2480 ft 2 kts 325°
2026-05-04 15:44 -25.00517 -53.49584 2480 ft 30 kts 315°
2026-05-04 15:44 -25.00130 -53.50009 2487 ft 123 kts 315°
2026-05-04 15:44 -24.99361 -53.50856 2677 ft 177 kts 315°
2026-05-04 15:45 -24.98439 -53.51839 3476 ft 188 kts 314°
2026-05-04 15:45 -24.97496 -53.52802 4515 ft 184 kts 329°
2026-05-04 15:45 -24.96216 -53.53013 4894 ft 201 kts 14°
2026-05-04 15:45 -24.95029 -53.52092 5159 ft 224 kts 50°
2026-05-04 15:46 -24.94067 -53.50616 5545 ft 250 kts 57°
2026-05-04 15:46 -24.93108 -53.48916 6116 ft 271 kts 58°
2026-05-04 15:46 -24.92109 -53.47124 7002 ft 278 kts 58°
2026-05-04 15:46 -24.91064 -53.45307 7973 ft 283 kts 57°
2026-05-04 15:47 -24.89977 -53.43483 8921 ft 287 kts 56°
2026-05-04 15:47 -24.88848 -53.41646 9848 ft 291 kts 55°
2026-05-04 15:47 -24.87676 -53.39771 10471 ft 308 kts 55°
2026-05-04 15:47 -24.86407 -53.37755 10819 ft 333 kts 55°
2026-05-04 15:48 -24.85493 -53.36307 11048 ft 348 kts 55°
2026-05-04 15:48 -24.83622 -53.33355 11928 ft 359 kts 55°
2026-05-04 15:48 -24.80722 -53.28776 13479 ft 368 kts 55°
2026-05-04 15:49 -24.79729 -53.27210 13999 ft 371 kts 55°
2026-05-04 15:49 -24.78241 -53.24872 14737 ft 375 kts 54°
2026-05-04 15:49 -24.76732 -53.22503 15456 ft 379 kts 54°
2026-05-04 15:49 -24.75210 -53.20110 16154 ft 383 kts 55°
2026-05-04 15:50 -24.73678 -53.17696 16836 ft 387 kts 55°
2026-05-04 15:50 -24.72130 -53.15260 17488 ft 390 kts 55°
2026-05-04 15:50 -24.70568 -53.12804 18119 ft 394 kts 55°
2026-05-04 15:50 -24.68992 -53.10322 18725 ft 397 kts 55°
2026-05-04 15:51 -24.67399 -53.07815 19310 ft 401 kts 55°
2026-05-04 15:51 -24.65795 -53.05291 19905 ft 404 kts 55°
2026-05-04 15:51 -24.64179 -53.02750 20482 ft 407 kts 55°
2026-05-04 15:51 -24.62567 -53.00224 21020 ft 411 kts 54°
2026-05-04 15:52 -24.60919 -52.97648 21540 ft 414 kts 54°
2026-05-04 15:52 -24.59254 -52.95047 22049 ft 417 kts 54°
2026-05-04 15:52 -24.57580 -52.92428 22560 ft 420 kts 54°
2026-05-04 15:52 -24.55896 -52.89789 23051 ft 423 kts 55°
2026-05-04 15:53 -24.54202 -52.87131 23514 ft 427 kts 55°
2026-05-04 15:53 -24.52490 -52.84449 23970 ft 430 kts 54°
2026-05-04 15:53 -24.50761 -52.81747 24416 ft 433 kts 54°
2026-05-04 15:53 -24.49023 -52.79037 24849 ft 436 kts 54°
2026-05-04 15:54 -24.47274 -52.76309 25257 ft 439 kts 54°
2026-05-04 15:54 -24.45511 -52.73554 25673 ft 441 kts 54°
2026-05-04 15:54 -24.43741 -52.70791 26082 ft 444 kts 54°
2026-05-04 15:54 -24.41959 -52.68009 26470 ft 447 kts 54°
2026-05-04 15:55 -24.40158 -52.65201 26851 ft 450 kts 54°
2026-05-04 15:55 -24.38353 -52.62385 27228 ft 453 kts 54°
2026-05-04 15:55 -24.36536 -52.59550 27572 ft 455 kts 54°
2026-05-04 15:55 -24.34699 -52.56699 27918 ft 458 kts 54°
2026-05-04 15:56 -24.32851 -52.53837 28244 ft 461 kts 54°
2026-05-04 15:56 -24.30996 -52.50962 28572 ft 463 kts 54°
2026-05-04 15:56 -24.29155 -52.48112 28888 ft 465 kts 54°
2026-05-04 15:56 -24.27260 -52.45172 29203 ft 467 kts 54°
2026-05-04 15:57 -24.25270 -52.42402 29501 ft 469 kts 47°
2026-05-04 15:57 -24.22893 -52.39952 29794 ft 471 kts 38°
2026-05-04 15:57 -24.20184 -52.37922 30158 ft 470 kts 29°
2026-05-04 15:57 -24.17243 -52.36357 30571 ft 469 kts 23°
2026-05-04 15:58 -24.14251 -52.34939 30979 ft 468 kts 23°
2026-05-04 15:58 -24.11265 -52.33522 31381 ft 467 kts 23°
2026-05-04 15:58 -24.08284 -52.32104 31775 ft 466 kts 23°
2026-05-04 15:58 -24.05314 -52.30689 32161 ft 466 kts 23°
2026-05-04 15:59 -24.02345 -52.29276 32553 ft 465 kts 23°
2026-05-04 15:59 -23.99383 -52.27868 32938 ft 464 kts 23°
2026-05-04 15:59 -23.96432 -52.26464 33328 ft 462 kts 23°
2026-05-04 15:59 -23.93481 -52.25060 33708 ft 461 kts 23°
2026-05-04 16:00 -23.90546 -52.23663 34082 ft 460 kts 23°
2026-05-04 16:00 -23.87601 -52.22262 34449 ft 459 kts 23°
2026-05-04 16:00 -23.84671 -52.20870 34805 ft 459 kts 23°
2026-05-04 16:00 -23.81741 -52.19482 35160 ft 458 kts 23°
2026-05-04 16:01 -23.78821 -52.18101 35499 ft 457 kts 23°
2026-05-04 16:01 -23.75911 -52.16723 35824 ft 456 kts 23°
2026-05-04 16:01 -23.72990 -52.15341 36124 ft 455 kts 23°
2026-05-04 16:01 -23.70122 -52.13985 36408 ft 455 kts 23°
2026-05-04 16:02 -23.67181 -52.12596 36681 ft 455 kts 23°
2026-05-04 16:02 -23.64310 -52.11239 36901 ft 455 kts 23°
2026-05-04 16:02 -23.58474 -52.08476 37010 ft 456 kts 23°
2026-05-04 16:03 -23.55566 -52.07099 37009 ft 456 kts 23°
2026-05-04 16:03 -23.49744 -52.04355 37009 ft 456 kts 23°
2026-05-04 16:04 -23.43902 -52.01621 37009 ft 457 kts 23°
2026-05-04 16:04 -23.35149 -51.97513 37011 ft 457 kts 23°
2026-05-04 16:05 -23.29313 -51.94762 37016 ft 457 kts 23°
2026-05-04 16:06 -23.20558 -51.90653 37020 ft 457 kts 23°
2026-05-04 16:07 -23.08878 -51.85183 37021 ft 457 kts 23°
2026-05-04 16:08 -22.97181 -51.79718 37025 ft 457 kts 23°
2026-05-04 16:09 -22.82590 -51.72901 37022 ft 457 kts 23°
2026-05-04 16:10 -22.70917 -51.67466 37018 ft 456 kts 23°
2026-05-04 16:11 -22.59265 -51.62033 37015 ft 455 kts 23°
2026-05-04 16:12 -22.41778 -51.53908 37011 ft 456 kts 23°
2026-05-04 16:13 -22.30150 -51.48522 37012 ft 456 kts 23°
2026-05-04 16:14 -22.18470 -51.43129 37015 ft 456 kts 23°
2026-05-04 16:16 -22.04254 -51.35535 37013 ft 456 kts 27°
2026-05-04 16:17 -21.90084 -51.27817 37014 ft 456 kts 26°
2026-05-04 16:18 -21.78757 -51.21692 37013 ft 456 kts 26°
2026-05-04 16:19 -21.64646 -51.13928 37009 ft 456 kts 27°
2026-05-04 16:20 -21.50593 -51.05994 37008 ft 456 kts 27°
2026-05-04 16:22 -21.36632 -50.98018 37012 ft 456 kts 28°
2026-05-04 16:22 -21.28221 -50.93217 36087 ft 456 kts 28°
2026-05-04 16:23 -21.19721 -50.88336 33321 ft 467 kts 31°
2026-05-04 16:24 -21.11504 -50.77586 28895 ft 483 kts 71°
2026-05-04 16:25 -21.10136 -50.70536 26736 ft 482 kts 81°
2026-05-04 16:26 -21.08066 -50.56640 23270 ft 458 kts 81°
2026-05-04 16:26 -21.06579 -50.46722 21070 ft 441 kts 81°
2026-05-04 16:27 -21.05617 -50.40319 19732 ft 430 kts 81°
2026-05-04 16:28 -21.04218 -50.31058 17922 ft 411 kts 81°
2026-05-04 16:28 -21.03023 -50.23179 16445 ft 395 kts 81°
2026-05-04 16:29 -21.01292 -50.11800 14133 ft 382 kts 81°
2026-05-04 16:30 -21.00013 -50.03431 12183 ft 377 kts 81°
2026-05-04 16:31 -20.99170 -49.97918 10869 ft 372 kts 81°
2026-05-04 16:31 -20.98006 -49.90280 10470 ft 324 kts 81°
2026-05-04 16:32 -20.96969 -49.83536 9933 ft 294 kts 81°
2026-05-04 16:33 -20.96310 -49.79244 9592 ft 293 kts 80°
2026-05-04 16:33 -20.95640 -49.74937 8729 ft 289 kts 81°
2026-05-04 16:34 -20.94993 -49.70725 7306 ft 285 kts 81°
2026-05-04 16:34 -20.94672 -49.68648 6606 ft 282 kts 81°
2026-05-04 16:35 -20.93720 -49.62565 4768 ft 277 kts 80°
2026-05-04 16:35 -20.92804 -49.56720 3991 ft 246 kts 80°
2026-05-04 16:36 -20.92303 -49.55051 3890 ft 235 kts 63°
2026-05-04 16:36 -20.90503 -49.52442 3712 ft 198 kts 51°
2026-05-04 16:37 -20.88993 -49.50425 3548 ft 152 kts 51°
2026-05-04 16:37 -20.88352 -49.49567 3474 ft 145 kts 51°
2026-05-04 16:37 -20.87108 -49.47905 3329 ft 142 kts 51°
2026-05-04 16:38 -20.85882 -49.46265 2909 ft 140 kts 51°
2026-05-04 16:39 -20.84060 -49.43832 2318 ft 139 kts 51°
2026-05-04 16:39 -20.82855 -49.42223 1958 ft 138 kts 51°
2026-05-04 16:40 -20.81705 -49.40692 1752 ft 89 kts 51°
2026-05-04 16:40 -20.81445 -49.40342 1762 ft 12 kts 51°
2026-05-04 16:41 -20.81374 -49.40312 1761 ft 0 kts 354°
2026-05-04 16:41 -20.81343 -49.40320 1763 ft 3 kts 334°
2026-05-04 16:42 -20.81258 -49.40391 1764 ft 4 kts 322°
2026-05-04 16:43 -20.81253 -49.40396 1763 ft 0 kts 321°